Home > Weather > Grudziądz > Past weeks

Flag for Poland Weather for the Past 2 Weeks in Grudziądz, Poland

Now
38 °F

Overcast.


Feels Like: 38 °F
Forecast: 35 / 40 °F
Wind: 1 mph from West

Location: Torun

Current Time: Feb 11, 2016 at 12:29:30 PM

Latest Report: Feb 11, 2016 at 11:00 AM


Visibility: 7 mi

Pressure: 29.41 "Hg

Humidity: 84%

Dew point: 34 °F

Location of GrudziądzLocation

Historic Weather in Grudziądz — Graph

°F

Grudziądz Temperature Yesterday

Maximum temperature yesterday: 49 °F (at 3:00 AM)
Minimum temperature yesterday: 36 °F (at 11:00 PM)
Average temperature yesterday: 43 °F

High & Low Weather Summary for the Past Weeks

 TemperatureHumidityPressure
High51 °F (Feb 8, 1:00 PM)100% (Feb 6, 7:00 AM)30.22 "Hg (Feb 6, 7:00 AM)
Low29 °F (Feb 5, 7:00 AM)50% (Feb 3, 1:00 PM)29.15 "Hg (Feb 10, 1:00 AM)
Average41 °F78%29.77 "Hg
* Reported Jan 27 11:00 AM — Feb 11 11:00 AM, Grudziądz, Weather by CustomWeather, © 2016

Note: Actual official high and low records may vary slightly from our data, if they occured in-between our weather recording intervals... More about our weather records

Advertising

Grudziądz Weather History for the Previous 24 Hours

 ConditionsComfort  
Time TempWeatherWind HumidityBarometerVisibility
11:00 AM
Thu, Feb 11
38 °FOvercast.1 mph84%29.41 "Hg7 mi
10:00 AM36 °FOvercast.2 mph88%29.41 "Hg7 mi
9:00 AM33 °FFog.1 mph92%29.41 "Hg6 mi
8:00 AM33 °FFog.1 mph91%29.38 "Hg6 mi
7:00 AM33 °FFog.1 mph89%29.38 "Hg5 mi
5:00 AM36 °FFog.1 mph84%29.38 "Hg4 mi
4:00 AM35 °FOvercast.1 mph83%29.35 "Hg6 mi
3:00 AM35 °FFog.1 mph84%29.35 "Hg5 mi
2:00 AM34 °FFog.1 mph86%29.35 "Hg5 mi
1:00 AM33 °FFog.No wind84%29.32 "Hg3 mi
12:00 AM35 °FFog.1 mph83%29.32 "Hg3 mi
11:00 PM
Wed, Feb 10
36 °FFog.1 mph80%29.32 "Hg4 mi
9:00 PM38 °FFog.1 mph78%29.32 "Hg4 mi
8:00 PM39 °FFog.2 mph77%29.32 "Hg4 mi
7:00 PM38 °FFog.1 mph79%29.32 "Hg4 mi
6:00 PM40 °FFog.1 mph75%29.32 "Hg5 mi
5:00 PM41 °FFog.1 mph71%29.29 "Hg3 mi
4:00 PM42 °FOvercast.1 mph69%29.29 "Hg6 mi
3:00 PM42 °FOvercast.1 mph66%29.29 "Hg8 mi
2:00 PM42 °FOvercast.3 mph63%29.26 "Hg22 mi
1:00 PM43 °FOvercast.2 mph64%29.26 "Hg14 mi
12:00 PM43 °FOvercast.2 mph64%29.29 "Hg31 mi
Weather by CustomWeather, © 2016

See weather overviewHow to use our weather pages